Regional Weather Roundup
Issued by NWS

Home | Current Version | Previous Version | Text Only | Print | Product List | Glossary On
Versions: 1 2 3 4 5 6 7 8 9 10 11 12 13 14 15 16 17 18 19 20 21 22 23 24 25 26 27 28 29 30 31 32 33 34 35 36 37 38 39 40 41 42 43 44 45 46 47 48 49 50
000
ASUS45 KBOI 062010
RWRID

IDAHO REGIONAL WEATHER ROUNDUP
NATIONAL WEATHER SERVICE BOISE ID
200 PM MDT MON JUL 06 2015

NOTE: "FAIR" INDICATES FEW OR NO CLOUDS BELOW 12000 FEET
WITH NO SIGNIFICANT WEATHER AND/OR OBSTRUCTIONS TO VISIBILITY

IDZ012-014-062100-
SOUTHWEST IDAHO


CITY           SKY/WX    TMP DP  RH WIND       PRES   REMARKS
BOISE          MOSUNNY   88  50  27 CALM      30.04F
CALDWELL       MOSUNNY   88  54  31 W6        30.04F
MOUNTAIN HOME  SUNNY     89  52  28 N1        30.04F
$$

IDZ016-017-062100-
SOUTHCENTRAL IDAHO


CITY           SKY/WX    TMP DP  RH WIND       PRES   REMARKS
BURLEY         MOSUNNY   79  55  43 SW5       30.12F
JEROME         SUNNY     81  52  36 S3        30.12F
TWIN FALLS     MOSUNNY   82  50  32 N6        30.10F
$$

IDZ019>023-062100-
SOUTHEAST IDAHO


CITY           SKY/WX    TMP DP  RH WIND       PRES   REMARKS
IDAHO FALLS    LGT RAIN  62  58  86 CALM      30.19F
POCATELLO      MOSUNNY   78  54  43 N9        30.15F
REXBURG        PTSUNNY   71  53  52 SW9       30.18F
$$

IDZ006-010-011-018-031-032-062100-
CENTRAL IDAHO MOUNTAINS


CITY           SKY/WX    TMP DP  RH WIND       PRES   REMARKS
MCCALL         SUNNY     82  42  24 SW7       30.15F
HAILEY         PTSUNNY   73  55  53 SE17      30.20F
STANLEY          N/A     75  43  31 E6        30.24F
SALMON         MOSUNNY   81  52  36 W7        30.04F
CHALLIS        SUNNY     83  42  23 VRB6      30.09F
$$

IDZ002-004-006-007-026-062100-
NORTHERN IDAHO


CITY           SKY/WX    TMP DP  RH WIND       PRES   REMARKS
LEWISTON       SUNNY     93  44  18 VRB7      29.96F
LOWELL           N/A     93  47  20 VRB5      29.97F
COEUR D`ALENE  SUNNY     82  46  28 CALM      30.05F
MULLAN PASS    SUNNY     70  40  33 CALM      30.26S
$$



USA.gov is the U.S. government's official web portal to all federal, state and local government web resources and services.